Orbital Elements at Epoch 2455072.5 (2009-Aug-29.0) TDB
Reference: JPL 50 (heliocentric ecliptic J2000)
Element | Value | Uncertainty (1-sigma) | Units |
e | .2906392019772506 | 1.015e-07 | |
a | 4.283706862229221 | 8.7533e-08 | au |
q | 3.038693718286448 | 4.7275e-07 | au |
i | 5.191035411803636 | 8.0316e-06 | deg |
node | 244.0747716037161 | 8.0591e-05 | deg |
peri | 181.0994003771245 | 9.4066e-05 | deg |
M | 173.3366942572703 | 3.101e-05 | deg |
tp | 2453513.248925769290 (2005-May-22.74892577) | 0.00028472 | TDB |
period | 3238.381746740342 8.87 | 9.9259e-05 2.718e-07 | d yr |
n | .1111666344964936 | 3.4073e-09 | deg/d |
Q | 5.528720006171993 | 1.1297e-07 | au |
|
Additional Model Parameters
Parameter | Value | Uncertainty (1-sigma) |
A1 [EST] | 2.870482813624359E-8 | 7.115E-9 |
A2 [EST] | 9.824804955318427E-9 | 2.073E-10 |
|
| | Orbit Determination Parameters
Additional Information
|